TimeCST,TemperatureF,Dew PointF,Humidity,Sea Level PressureIn,VisibilityMPH,Wind Direction,Wind SpeedMPH,Gust SpeedMPH,PrecipitationIn,Events,Conditions,WindDirDegrees,DateUTC
12:53 AM,37.9,34.0,86,30.15,10.0,Calm,Calm,-,N/A,,Clear,0,2013-02-12 06:53:00
1:53 AM,37.0,33.1,86,30.16,10.0,Calm,Calm,-,N/A,,Clear,0,2013-02-12 07:53:00
2:53 AM,36.0,32.0,86,30.16,10.0,Calm,Calm,-,N/A,,Clear,0,2013-02-12 08:53:00
3:53 AM,34.0,32.0,92,30.14,10.0,Calm,Calm,-,N/A,,Clear,0,2013-02-12 09:53:00
4:53 AM,33.1,30.9,92,30.12,10.0,NE,4.6,-,N/A,,Clear,40,2013-02-12 10:53:00
5:53 AM,35.1,32.0,89,30.09,10.0,NE,5.8,-,N/A,,Clear,50,2013-02-12 11:53:00
6:53 AM,36.0,32.0,86,30.10,10.0,ENE,4.6,-,N/A,,Clear,60,2013-02-12 12:53:00
7:53 AM,39.9,34.0,79,30.14,10.0,Calm,Calm,-,N/A,,Clear,0,2013-02-12 13:53:00
8:53 AM,42.1,33.1,70,30.09,10.0,NE,10.4,-,N/A,,Clear,50,2013-02-12 14:53:00
9:53 AM,44.1,33.1,65,30.09,10.0,NE,10.4,-,N/A,,Clear,50,2013-02-12 15:53:00
10:53 AM,45.0,36.0,71,30.10,10.0,ENE,10.4,-,N/A,,Clear,70,2013-02-12 16:53:00
11:53 AM,46.0,36.0,68,30.10,10.0,ENE,5.8,-,N/A,,Overcast,60,2013-02-12 17:53:00
12:53 PM,46.0,37.0,71,30.08,10.0,ENE,8.1,-,N/A,,Overcast,60,2013-02-12 18:53:00
1:53 PM,46.9,37.9,71,29.99,10.0,ENE,10.4,-,N/A,,Scattered Clouds,60,2013-02-12 19:53:00
2:53 PM,46.9,39.0,74,29.97,10.0,ENE,9.2,-,0.00,Rain,Light Rain,70,2013-02-12 20:53:00
3:53 PM,45.0,39.9,82,29.96,10.0,North,5.8,-,0.04,Rain,Light Rain,360,2013-02-12 21:53:00
4:53 PM,45.0,39.0,80,29.96,7.0,NNE,9.2,-,0.05,Rain,Light Rain,20,2013-02-12 22:53:00
5:53 PM,44.1,39.0,82,29.93,10.0,NNE,10.4,-,0.03,Rain,Light Rain,30,2013-02-12 23:53:00
6:53 PM,44.1,39.0,82,29.89,10.0,NE,11.5,-,0.01,,Overcast,40,2013-02-13 00:53:00
7:53 PM,44.1,39.0,82,29.88,10.0,NE,9.2,-,0.00,,Overcast,50,2013-02-13 01:53:00
8:53 PM,44.1,39.0,82,29.86,10.0,NE,9.2,-,N/A,,Overcast,40,2013-02-13 02:53:00
9:53 PM,44.1,37.0,76,29.88,10.0,NNE,8.1,-,0.00,Rain,Light Rain,30,2013-02-13 03:53:00
10:53 PM,43.0,37.9,82,29.88,9.0,North,5.8,-,0.00,Rain,Light Rain,350,2013-02-13 04:53:00
11:53 PM,42.1,39.0,89,29.87,9.0,NNE,5.8,-,0.02,Rain,Light Rain,20,2013-02-13 05:53:00